Regional Weather Roundup
Issued by NWS Sioux Falls, SD

Home | Current Version | Previous Version | Text Only | Print | Product List | Glossary On
Versions: 1 2 3 4 5 6 7 8 9 10 11 12 13 14 15 16 17 18 19 20 21 22 23 24 25 26 27 28 29 30 31 32 33 34 35 36 37 38 39 40 41 42 43 44 45 46 47 48 49 50
000
ASUS43 KFSD 201010
RWRFSD

WEATHER ROUNDUP FOR SE SOUTH DAKOTA/SW MINNESOTA/NW IOWA
NATIONAL WEATHER SERVICE SIOUX FALLS SD
500 AM CDT MON OCT 20 2014

NOTE: "FAIR" INDICATES FEW OR NO CLOUDS BELOW 12,000 FEET WITH NO
SIGNIFICANT WEATHER AND OR OBSTRUCTIONS TO VISIBILITY.


SDZ038>040-050-052>070-201100-
SOUTHEAST SOUTH DAKOTA

CITY           SKY/WX    TMP DP  RH WIND       PRES   REMARKS
CHAMBERLAIN    CLEAR     39  35  83 W3        30.07R
HURON          CLEAR     35  32  88 CALM      30.05R
MADISON        FAIR      36  36 100 NW7       30.04R
MITCHELL       CLEAR     40  36  86 W5        30.06R
SIOUX FALLS    CLEAR     40  36  86 CALM      30.03R
WINNER         FAIR      48  36  63 SW6       30.08R
YANKTON        CLEAR     41  36  81 NW8       30.04S
$$

MNZ071-072-080-081-089-090-097-098-201100-
SOUTHWEST MINNESOTA

CITY           SKY/WX    TMP DP  RH WIND       PRES   REMARKS
FAIRMONT       CLEAR     46  36  66 NW8       29.97R
JACKSON        CLEAR     41  36  81 W6        29.99S
LUVERNE        CLEAR     41  36  81 NW5       30.02S
MARSHALL       CLEAR     45  36  70 W12       29.98R
MONTEVIDEO     CLEAR     43  37  81 N7        29.99R
PIPESTONE      CLEAR     39  36  87 CALM      30.02R
REDWOOD FALLS  CLEAR     44  37  76 W9        29.98R
TRACY          CLEAR     48  39  71 W7        29.99S
WINDOM         CLEAR     39  36  87 W3        29.99R
WORTHINGTON    CLEAR     39  34  81 W5        30.01S
$$

IAZ001>003-012>014-020>022-031-032-NEZ013-014-SDZ071-201100-
NORTHWEST IOWA

CITY           SKY/WX    TMP DP  RH WIND       PRES   REMARKS
CHEROKEE       CLEAR     38  38 100 CALM      30.01R
DENISON        CLEAR     41  41 100 CALM      29.98R
ESTHERVILLE    CLEAR     41  37  86 NW8       29.98R
LE MARS        CLEAR     37  36  93 CALM      30.03R
ORANGE CITY    CLEAR     43  36  75 N3        30.02R
SHELDON        CLEAR     37  36  93 W3        30.00S
SIOUX CITY     CLEAR     40  39  97 NW5       30.03R
SPENCER        CLEAR     35  33  92 W5        30.00R
STORM LAKE     FAIR      45  37  76 N9        30.01R
$$

ABBREVIATIONS USED IN REMARKS
   TC - TEMPERATURE IN CELSIUS
  WCI - WIND CHILL INDEX
   HX - HEAT INDEX
  VSB - VISIBILITY



USA.gov is the U.S. government's official web portal to all federal, state and local government web resources and services.